CAPE
2 3 48 65 56 24 18 31 67 41 23 4 30 23 16 31 25 23 0 0 0 0 0 70 218 243 73 117 338 393 512 415 359 227 37 18 8 7 21 9 9 6 7 8 10 9 9 5 1
0 0 7 43 24 19 23 42 72 54 57 70 35 47 4 0 0 0 1 3 0 0 14 78 115 190 1 0 67 321 335 277 237 165 52 10 3 3 7 3 5 5 5 6 3 1 0 0 0
0 0 1 49 13 20 17 34 34 43 78 70 37 13 0 0 0 0 0 0 0 0 46 36 78 106 0 0 0 12 90 127 17 5 4 3 5 8 20 9 2 4 5 3 1 0 0 0 0
0 0 0 32 23 22 3 25 85 89 95 74 8 0 0 1 3 2 0 0 0 0 15 39 69 27 0 0 0 0 0 2 5 2 0 0 0 0 0 0 10 0 0 0 0 0 1 1 0
0 0 0 9 19 24 4 67 68 95 81 45 55 15 0 2 1 0 0 0 0 22 16 34 48 42 3 0 0 0 0 0 1 0 0 0 0 0 0 0 0 0 0 0 0 0 0 0 0
4 0 0 15 15 6 0 40 82 102 51 55 27 5 5 1 0 1 0 0 0 4 9 13 18 4 2 4 1 2 1 5 9 2 2 1 0 0 0 0 0 0 0 0 0 0 0 0 0
13 0 0 32 31 31 49 69 69 80 4 0 34 52 0 4 1 1 0 0 8 2 1 0 0 0 0 0 0 0 0 0 3 2 0 0 0 0 0 0 0 0 0 0 0 0 0 0 0
18 0 0 0 0 5 22 61 48 70 51 0 0 0 0 2 5 1 0 0 4 0 0 0 0 0 0 0 0 0 0 0 0 0 0 0 0 0 0 0 0 0 0 0 0 0 0 0 0
38 0 22 2 0 1 15 59 55 81 62 34 10 28 0 0 1 0 0 7 0 1 0 2 0 0 0 0 0 0 0 0 0 0 0 0 0 0 0 0 0 0 0 0 0 0 0 0 0
21 7 15 33 9 3 25 17 41 51 68 28 0 0 0 0 0 0 0 0 0 11 20 18 0 5 0 0 0 0 0 0 0 0 0 0 0 0 0 0 0 0 0 0 0 0 0 0 0
0 18 14 21 22 8 12 0 8 48 24 30 0 0 0 0 0 0 0 0 0 1 6 3 0 2 0 0 0 0 0 1 0 0 0 0 0 0 0 0 0 0 0 0 0 0 2 5 11
0 19 19 22 21 7 12 1 0 1 0 19 43 11 0 0 0 0 0 0 0 0 0 0 5 0 0 0 0 0 0 0 1 0 0 0 0 0 0 0 0 1 5 10 10 9 15 21 30
2 13 22 1 9 4 9 8 10 0 89 147 110 30 0 0 0 0 0 0 0 0 0 0 0 0 1 0 0 5 3 0 0 0 0 0 0 0 0 6 8 10 21 30 25 23 19 14 4
0 18 33 1 16 7 0 4 8 16 213 188 154 27 0 0 0 0 0 0 0 0 0 0 0 0 0 7 2 4 1 1 0 0 0 0 0 0 7 10 16 21 27 34 21 4 1 1 0
10 16 17 4 7 11 6 0 0 18 192 152 117 6 0 0 0 0 0 0 0 0 0 0 0 0 0 0 4 2 0 0 0 0 11 12 7 15 23 7 14 13 6 1 0 0 0 0 0
3 34 0 5 32 4 12 0 0 2 109 176 222 143 31 5 0 0 0 0 0 0 0 0 0 0 3 0 0 0 0 2 14 6 12 22 10 19 14 104 6 4 0 0 0 0 0 0 0
0 0 0 0 3 9 9 0 0 0 22 109 239 218 137 90 32 6 0 0 0 0 0 0 0 0 0 0 0 0 10 19 12 10 9 10 13 12 46 44 1 0 0 0 0 0 0 0 0
0 0 0 0 3 0 2 15 2 0 13 26 229 259 209 163 84 78 8 2 23 26 38 16 7 2 0 0 5 4 9 19 12 11 9 8 8 11 7 11 3 0 0 0 0 0 0 0 0
0 0 0 0 16 8 1 3 3 11 18 34 156 234 278 203 126 162 182 118 147 101 96 28 17 1 0 2 11 52 19 34 13 17 19 20 15 12 38 14 8 8 0 0 0 0 0 0 0
0 0 0 0 0 0 0 3 3 4 8 9 51 164 269 221 215 164 258 224 192 127 121 103 75 41 63 42 45 42 41 18 38 19 26 24 18 25 24 27 21 15 9 7 0 7 1 0 0
0 0 0 0 0 0 0 0 3 6 13 9 16 134 188 224 198 217 301 243 170 134 127 155 159 141 152 181 146 78 77 27 17 21 24 20 20 19 25 13 28 14 0 14 13 2 0 0 0
0 0 0 0 0 0 0 0 0 0 14 14 9 124 141 209 223 239 230 180 199 210 196 211 152 181 119 100 133 113 96 48 26 31 19 32 19 22 35 23 10 16 1 0 8 0 0 0 0
0 0 2 0 0 0 0 0 0 0 0 0 20 47 125 154 174 158 182 249 226 208 281 197 44 141 140 92 126 114 150 82 82 80 71 53 39 25 26 0 0 0 0 0 0 0 0 0 0
0 0 0 0 0 0 0 0 0 0 0 0 12 7 99 89 95 98 100 156 236 255 296 114 159 55 97 109 92 56 69 74 65 44 34 31 28 1 1 1 2 0 0 0 0 0 0 0 0
0 0 0 0 0 0 0 0 0 0 1 0 0 5 52 97 67 82 69 47 95 91 181 161 146 146 132 123 69 61 55 52 16 3 9 4 5 0 0 0 0 0 0 0 0 0 0 0 0
0 0 0 0 0 0 0 0 0 0 1 7 6 5 47 48 73 51 16 1 12 31 50 86 107 128 12 14 9 4 3 5 0 0 0 0 0 0 0 0 0 0 0 0 0 0 0 0 0
0 0 0 0 0 0 0 0 0 3 22 4 0 0 1 1 0 0 0 5 10 15 25 28 30 15 7 8 7 2 0 0 0 0 0 0 0 0 0 0 0 0 0 0 0 0 0 0 0
4 0 0 0 0 0 0 0 0 0 0 4 0 3 4 5 1 0 0 0 0 5 11 11 13 2 5 2 0 0 0 0 0 0 0 0 0 0 0 0 0 0 0 0 0 0 0 0 0
0 0 0 0 0 0 0 0 0 0 0 0 0 0 0 0 0 0 0 0 1 10 4 7 3 6 0 0 0 0 0 0 0 0 0 0 0 0 0 0 0 0 0 0 0 0 0 0 0
36 18 14 0 0 0 0 0 0 0 0 0 0 5 1 0 0 0 0 3 6 5 1 0 0 0 0 0 0 0 0 0 0 0 0 0 0 0 0 0 0 0 0 0 0 0 0 0 0
CIN
-48 -23 -226 -94 -41 -34 -6 -6 -5 -15 -46 -16 -40 -59 -135 -95 -87 -31 -0 -0 -0 -0 -0 -65 -13 -16 -43 -19 -0 -1 -0 -1 -0 -2 -43 -1 -0 -0 -0 -0 -0 -0 -0 -0 -0 -0 -0 -0 -0
-0 -0 -197 -39 -35 -22 -14 -1 -5 -7 -44 -23 -29 -44 -5 -0 -0 -0 -4 -8 -0 -0 -30 -59 -58 -34 -0 -0 -45 -1 -0 -0 -0 -2 -6 -0 -0 -0 -0 -0 -0 -0 -0 -0 -0 -0 -0 -0 -0
-0 -0 -12 -41 -12 -15 -69 -9 -12 -42 -31 -22 -25 -40 -0 -0 -0 -0 -0 -0 -0 -0 -115 -2 -58 -45 -0 -0 -0 -13 -13 -4 -14 -0 -0 -0 -0 -0 -1 -0 -0 -0 -0 -0 -0 -0 -0 -0 -0
-0 -0 -0 -9 -17 -25 -0 -0 -27 -33 -31 -21 -54 -0 -0 -0 -4 -0 -0 -0 -0 -0 -4 -2 -1 -0 -0 -0 -0 -0 -0 -0 -0 -0 -0 -0 -0 -0 -0 -0 -0 -0 -0 -0 -0 -0 -0 -0 -0
-0 -0 -0 -20 -8 -8 -1 -15 -22 -27 -22 -15 -35 -38 -0 -0 -0 -0 -0 -0 -0 -19 -4 -1 -1 -0 -0 -0 -0 -0 -0 -0 -0 -0 -0 -0 -0 -0 -0 -0 -0 -0 -0 -0 -0 -0 -0 -0 -0
-3 -0 -0 -7 -10 -9 -2 -43 -6 -10 -19 -29 -22 -2 -2 -3 -0 -0 -0 -0 -0 -8 -3 -0 -2 -1 -0 -0 -0 -0 -0 -0 -0 -0 -0 -0 -0 -0 -0 -0 -0 -0 -0 -0 -0 -0 -0 -0 -0
-0 -0 -0 -6 -7 -20 -30 -21 -6 -6 -3 -0 -63 -75 -0 -3 -16 -0 -0 -0 -41 -10 -0 -0 -0 -0 -0 -0 -0 -0 -0 -0 -0 -0 -0 -0 -0 -0 -0 -0 -0 -0 -0 -0 -0 -0 -0 -0 -0
-1 -0 -0 -0 -0 -105 -14 -13 -13 -21 -22 -0 -4 -0 -0 -3 -15 -0 -0 -0 -22 -0 -0 -0 -0 -0 -0 -0 -0 -0 -0 -0 -0 -0 -0 -0 -0 -0 -0 -0 -0 -0 -0 -0 -0 -0 -0 -0 -0
-0 -0 -7 -5 -0 -1 -15 -10 -25 -48 -74 -118 -61 -64 -0 -0 -16 -0 -0 -9 -0 -7 -0 -9 -0 -0 -0 -0 -0 -0 -0 -0 -0 -0 -0 -0 -0 -0 -0 -0 -0 -0 -0 -0 -0 -0 -0 -0 -0
-1 -1 -3 -6 -2 -4 -13 -18 -12 -34 -68 -151 -0 -0 -0 -0 -0 -0 -0 -0 -0 -9 -19 -31 -0 -25 -0 -0 -0 -0 -0 -0 -0 -0 -0 -0 -0 -0 -0 -0 -0 -0 -0 -0 -0 -0 -0 -0 -0
-0 -2 -0 -2 -0 -30 -22 -0 -51 -17 -42 -110 -2 -0 -0 -0 -0 -0 -0 -0 -0 -0 -10 -5 -0 -6 -0 -0 -0 -0 -0 -3 -0 -0 -0 -0 -0 -0 -0 -0 -0 -0 -0 -0 -0 -0 -7 -4 -6
-0 -0 -0 -2 -5 -18 -15 -5 -0 -6 -0 -71 -37 -29 -0 -0 -0 -0 -0 -0 -0 -0 -0 -0 -6 -0 -0 -0 -0 -0 -0 -0 -0 -0 -0 -0 -0 -0 -0 -0 -0 -0 -3 -4 -5 -5 -1 -1 -2
-2 -0 -0 -1 -14 -11 -3 -3 -2 -0 -130 -87 -64 -53 -0 -0 -0 -0 -0 -0 -0 -0 -0 -0 -0 -0 -2 -0 -0 -1 -3 -0 -0 -0 -0 -0 -0 -0 -0 -2 -2 -0 -8 -5 -3 -6 -2 -2 -3
-3 -0 -0 -0 -2 -8 -0 -11 -1 -95 -98 -82 -83 -70 -0 -0 -0 -0 -0 -0 -0 -0 -0 -0 -0 -0 -0 -6 -0 -0 -0 -0 -0 -0 -0 -0 -0 -0 -0 -2 -3 -6 -6 -6 -1 -0 -0 -1 -0
-18 -5 -0 -7 -6 -2 -3 -7 -0 -92 -100 -128 -129 -111 -0 -0 -0 -0 -0 -0 -0 -0 -0 -0 -0 -0 -0 -0 -0 -0 -0 -0 -0 -0 -1 -2 -4 -5 -7 -0 -0 -0 -4 -0 -0 -1 -0 -0 -0
-2 -7 -0 -1 -1 -2 -2 -0 -0 -23 -94 -101 -108 -105 -180 -50 -0 -0 -0 -0 -0 -0 -0 -0 -0 -1 -1 -0 -0 -0 -0 -1 -9 -1 -3 -5 -1 -5 -0 -0 -0 -0 -0 -0 -0 -0 -0 -0 -0
-0 -0 -0 -0 -0 -0 -3 -0 -0 -0 -47 -64 -90 -87 -96 -93 -122 -60 -0 -0 -0 -0 -0 -0 -0 -0 -0 -0 -0 -0 -0 -10 -3 -0 -0 -0 -0 -0 -0 -0 -2 -0 -0 -0 -0 -0 -0 -0 -0
-0 -0 -0 -0 -12 -1 -2 -3 -3 -0 -28 -30 -54 -64 -63 -68 -105 -71 -84 -9 -34 -60 -52 -45 -1 -1 -0 -0 -0 -0 -0 -8 -0 -0 -0 -0 -0 -2 -0 -0 -0 -0 -0 -0 -0 -0 -0 -0 -0
-0 -0 -0 -0 -2 -5 -1 -9 -2 -17 -10 -7 -26 -32 -63 -77 -53 -7 -0 -17 -3 -20 -23 -40 -11 -6 -0 -1 -2 -5 -0 -2 -0 -0 -0 -0 -0 -0 -0 -0 -0 -0 -0 -0 -0 -0 -0 -0 -0
-0 -0 -0 -0 -0 -0 -0 -69 -14 -8 -0 -1 -2 -22 -22 -24 -6 -12 -5 -22 -35 -42 -55 -55 -69 -83 -48 -56 -20 -5 -0 -0 -0 -0 -0 -0 -0 -0 -0 -0 -0 -0 -1 -0 -0 -1 -2 -0 -0
-0 -0 -0 -0 -0 -0 -0 -0 -12 -42 -4 -0 -3 -48 -16 -25 -13 -10 -11 -6 -24 -33 -37 -21 -9 -9 -3 -0 -0 -0 -0 -1 -0 -0 -0 -0 -0 -0 -0 -0 -0 -4 -0 -1 -1 -2 -0 -0 -0
-0 -0 -0 -0 -0 -0 -0 -0 -0 -0 -46 -0 -0 -76 -29 -16 -24 -9 -15 -14 -19 -11 -8 -1 -3 -0 -7 -5 -0 -0 -0 -0 -0 -0 -0 -0 -0 -0 -0 -0 -0 -0 -2 -0 -0 -0 -0 -0 -0
-0 -0 -0 -0 -0 -0 -0 -0 -0 -0 -0 -0 -9 -100 -33 -31 -31 -41 -24 -7 -13 -7 -1 -0 -31 -0 -0 -4 -0 -0 -0 -0 -0 -0 -0 -0 -0 -3 -2 -0 -0 -0 -0 -0 -0 -0 -0 -0 -0
-0 -0 -0 -0 -0 -0 -0 -0 -0 -0 -0 -0 -10 -75 -56 -38 -56 -80 -65 -28 -1 -0 -0 -0 -0 -1 -0 -0 -0 -2 -0 -0 -0 -0 -1 -0 -1 -0 -0 -0 -0 -0 -0 -0 -0 -0 -0 -0 -0
-0 -0 -0 -0 -0 -0 -0 -0 -0 -0 -0 -0 -0 -68 -75 -70 -54 -47 -55 -50 -28 -23 -5 -3 -0 -0 -0 -0 -3 -0 -0 -0 -0 -0 -0 -0 -0 -0 -0 -0 -0 -0 -0 -0 -0 -0 -0 -0 -0
-0 -0 -0 -0 -0 -0 -0 -0 -0 -0 -5 -0 -0 -3 -43 -47 -61 -53 -65 -8 -57 -36 -37 -1 -1 -0 -0 -2 -0 -0 -0 -0 -0 -0 -0 -0 -0 -0 -0 -0 -0 -0 -0 -0 -0 -0 -0 -0 -0
-0 -0 -0 -0 -0 -0 -0 -0 -0 -17 -10 -16 -0 -0 -18 -5 -0 -0 -0 -11 -7 -4 -5 -0 -0 -0 -0 -0 -0 -0 -0 -0 -0 -0 -0 -0 -0 -0 -0 -0 -0 -0 -0 -0 -0 -0 -0 -0 -0
-0 -0 -0 -0 -0 -0 -0 -0 -0 -0 -0 -33 -0 -71 -68 -66 -40 -0 -0 -0 -0 -3 -2 -11 -6 -0 -0 -0 -0 -0 -0 -0 -0 -0 -0 -0 -0 -0 -0 -0 -0 -0 -0 -0 -0 -0 -0 -0 -0
-0 -0 -0 -0 -0 -0 -0 -0 -0 -0 -0 -0 -0 -0 -0 -0 -0 -0 -0 -0 -0 -0 -1 -0 -0 -0 -0 -0 -0 -0 -0 -0 -0 -0 -0 -0 -0 -0 -0 -0 -0 -0 -0 -0 -0 -0 -0 -0 -0
-0 -4 -2 -0 -0 -0 -0 -0 -0 -0 -0 -0 -7 -61 -92 -0 -0 -0 -4 -0 -0 -0 -2 -0 -0 -0 -0 -0 -0 -0 -0 -0 -0 -0 -0 -0 -0 -0 -0 -0 -0 -0 -0 -0 -0 -0 -0 -0 -0
Wind_Speed
nan nan nan nan nan nan nan nan nan nan nan nan nan nan nan nan nan nan nan nan nan nan nan nan 5 9 nan 11 13 12 9 11 15 17 nan nan nan nan nan nan nan nan nan nan nan nan nan nan nan
nan nan nan nan nan nan nan nan nan nan nan nan nan nan nan nan nan nan nan nan nan nan nan nan 12 14 nan nan nan 17 18 19 20 19 nan nan nan nan nan nan nan nan nan nan nan nan nan nan nan
nan nan nan nan nan nan nan nan nan nan nan nan nan nan nan nan nan nan nan nan nan nan nan nan nan 11 nan nan nan nan nan 20 nan nan nan nan nan nan nan nan nan nan nan nan nan nan nan nan nan
nan nan nan nan nan nan nan nan nan nan nan nan nan nan nan nan nan nan nan nan nan nan nan nan nan nan nan nan nan nan nan nan nan nan nan nan nan nan nan nan nan nan nan nan nan nan nan nan nan
nan nan nan nan nan nan nan nan nan nan nan nan nan nan nan nan nan nan nan nan nan nan nan nan nan nan nan nan nan nan nan nan nan nan nan nan nan nan nan nan nan nan nan nan nan nan nan nan nan
nan nan nan nan nan nan nan nan nan 22 nan nan nan nan nan nan nan nan nan nan nan nan nan nan nan nan nan nan nan nan nan nan nan nan nan nan nan nan nan nan nan nan nan nan nan nan nan nan nan
nan nan nan nan nan nan nan nan nan nan nan nan nan nan nan nan nan nan nan nan nan nan nan nan nan nan nan nan nan nan nan nan nan nan nan nan nan nan nan nan nan nan nan nan nan nan nan nan nan
nan nan nan nan nan nan nan nan nan nan nan nan nan nan nan nan nan nan nan nan nan nan nan nan nan nan nan nan nan nan nan nan nan nan nan nan nan nan nan nan nan nan nan nan nan nan nan nan nan
nan nan nan nan nan nan nan nan nan nan nan nan nan nan nan nan nan nan nan nan nan nan nan nan nan nan nan nan nan nan nan nan nan nan nan nan nan nan nan nan nan nan nan nan nan nan nan nan nan
nan nan nan nan nan nan nan nan nan nan nan nan nan nan nan nan nan nan nan nan nan nan nan nan nan nan nan nan nan nan nan nan nan nan nan nan nan nan nan nan nan nan nan nan nan nan nan nan nan
nan nan nan nan nan nan nan nan nan nan nan nan nan nan nan nan nan nan nan nan nan nan nan nan nan nan nan nan nan nan nan nan nan nan nan nan nan nan nan nan nan nan nan nan nan nan nan nan nan
nan nan nan nan nan nan nan nan nan nan nan nan nan nan nan nan nan nan nan nan nan nan nan nan nan nan nan nan nan nan nan nan nan nan nan nan nan nan nan nan nan nan nan nan nan nan nan nan nan
nan nan nan nan nan nan nan nan nan nan nan 36 33 nan nan nan nan nan nan nan nan nan nan nan nan nan nan nan nan nan nan nan nan nan nan nan nan nan nan nan nan nan nan nan nan nan nan nan nan
nan nan nan nan nan nan nan nan nan nan 37 38 33 nan nan nan nan nan nan nan nan nan nan nan nan nan nan nan nan nan nan nan nan nan nan nan nan nan nan nan nan nan nan nan nan nan nan nan nan
nan nan nan nan nan nan nan nan nan nan 36 35 32 nan nan nan nan nan nan nan nan nan nan nan nan nan nan nan nan nan nan nan nan nan nan nan nan nan nan nan nan nan nan nan nan nan nan nan nan
nan nan nan nan nan nan nan nan nan nan 38 35 32 29 nan nan nan nan nan nan nan nan nan nan nan nan nan nan nan nan nan nan nan nan nan nan nan nan nan 31 nan nan nan nan nan nan nan nan nan
nan nan nan nan nan nan nan nan nan nan nan 37 32 31 30 nan nan nan nan nan nan nan nan nan nan nan nan nan nan nan nan nan nan nan nan nan nan nan nan nan nan nan nan nan nan nan nan nan nan
nan nan nan nan nan nan nan nan nan nan nan nan 32 33 34 32 nan nan nan nan nan nan nan nan nan nan nan nan nan nan nan nan nan nan nan nan nan nan nan nan nan nan nan nan nan nan nan nan nan
nan nan nan nan nan nan nan nan nan nan nan nan 38 32 36 34 33 36 37 33 36 33 nan nan nan nan nan nan nan nan nan nan nan nan nan nan nan nan nan nan nan nan nan nan nan nan nan nan nan
nan nan nan nan nan nan nan nan nan nan nan nan nan 36 34 46 53 48 46 44 44 43 43 43 nan nan nan nan nan nan nan nan nan nan nan nan nan nan nan nan nan nan nan nan nan nan nan nan nan
nan nan nan nan nan nan nan nan nan nan nan nan nan 51 51 46 51 50 49 46 45 46 44 45 43 44 43 47 47 nan nan nan nan nan nan nan nan nan nan nan nan nan nan nan nan nan nan nan nan
nan nan nan nan nan nan nan nan nan nan nan nan nan 54 50 54 53 52 53 52 49 46 46 49 48 49 50 53 51 55 nan nan nan nan nan nan nan nan nan nan nan nan nan nan nan nan nan nan nan
nan nan nan nan nan nan nan nan nan nan nan nan nan nan 58 57 52 53 54 53 51 48 50 51 nan 56 56 nan 59 59 61 nan nan nan nan nan nan nan nan nan nan nan nan nan nan nan nan nan nan
nan nan nan nan nan nan nan nan nan nan nan nan nan nan nan nan nan nan 58 56 55 56 55 57 63 nan nan 61 nan nan nan nan nan nan nan nan nan nan nan nan nan nan nan nan nan nan nan nan nan
nan nan nan nan nan nan nan nan nan nan nan nan nan nan nan nan nan nan nan nan nan nan 69 64 66 69 62 53 nan nan nan nan nan nan nan nan nan nan nan nan nan nan nan nan nan nan nan nan nan
nan nan nan nan nan nan nan nan nan nan nan nan nan nan nan nan nan nan nan nan nan nan nan nan 43 47 nan nan nan nan nan nan nan nan nan nan nan nan nan nan nan nan nan nan nan nan nan nan nan
nan nan nan nan nan nan nan nan nan nan nan nan nan nan nan nan nan nan nan nan nan nan nan nan nan nan nan nan nan nan nan nan nan nan nan nan nan nan nan nan nan nan nan nan nan nan nan nan nan
nan nan nan nan nan nan nan nan nan nan nan nan nan nan nan nan nan nan nan nan nan nan nan nan nan nan nan nan nan nan nan nan nan nan nan nan nan nan nan nan nan nan nan nan nan nan nan nan nan
nan nan nan nan nan nan nan nan nan nan nan nan nan nan nan nan nan nan nan nan nan nan nan nan nan nan nan nan nan nan nan nan nan nan nan nan nan nan nan nan nan nan nan nan nan nan nan nan nan
nan nan nan nan nan nan nan nan nan nan nan nan nan nan nan nan nan nan nan nan nan nan nan nan nan nan nan nan nan nan nan nan nan nan nan nan nan nan nan nan nan nan nan nan nan nan nan nan nan
Wind_Direction
nan nan nan nan nan nan nan nan nan nan nan nan nan nan nan nan nan nan nan nan nan nan nan nan 262 262 nan 235 230 242 276 293 296 296 nan nan nan nan nan nan nan nan nan nan nan nan nan nan nan
nan nan nan nan nan nan nan nan nan nan nan nan nan nan nan nan nan nan nan nan nan nan nan nan 264 262 nan nan nan 246 258 270 276 276 nan nan nan nan nan nan nan nan nan nan nan nan nan nan nan
nan nan nan nan nan nan nan nan nan nan nan nan nan nan nan nan nan nan nan nan nan nan nan nan nan 265 nan nan nan nan nan 262 nan nan nan nan nan nan nan nan nan nan nan nan nan nan nan nan nan
nan nan nan nan nan nan nan nan nan nan nan nan nan nan nan nan nan nan nan nan nan nan nan nan nan nan nan nan nan nan nan nan nan nan nan nan nan nan nan nan nan nan nan nan nan nan nan nan nan
nan nan nan nan nan nan nan nan nan nan nan nan nan nan nan nan nan nan nan nan nan nan nan nan nan nan nan nan nan nan nan nan nan nan nan nan nan nan nan nan nan nan nan nan nan nan nan nan nan
nan nan nan nan nan nan nan nan nan 220 nan nan nan nan nan nan nan nan nan nan nan nan nan nan nan nan nan nan nan nan nan nan nan nan nan nan nan nan nan nan nan nan nan nan nan nan nan nan nan
nan nan nan nan nan nan nan nan nan nan nan nan nan nan nan nan nan nan nan nan nan nan nan nan nan nan nan nan nan nan nan nan nan nan nan nan nan nan nan nan nan nan nan nan nan nan nan nan nan
nan nan nan nan nan nan nan nan nan nan nan nan nan nan nan nan nan nan nan nan nan nan nan nan nan nan nan nan nan nan nan nan nan nan nan nan nan nan nan nan nan nan nan nan nan nan nan nan nan
nan nan nan nan nan nan nan nan nan nan nan nan nan nan nan nan nan nan nan nan nan nan nan nan nan nan nan nan nan nan nan nan nan nan nan nan nan nan nan nan nan nan nan nan nan nan nan nan nan
nan nan nan nan nan nan nan nan nan nan nan nan nan nan nan nan nan nan nan nan nan nan nan nan nan nan nan nan nan nan nan nan nan nan nan nan nan nan nan nan nan nan nan nan nan nan nan nan nan
nan nan nan nan nan nan nan nan nan nan nan nan nan nan nan nan nan nan nan nan nan nan nan nan nan nan nan nan nan nan nan nan nan nan nan nan nan nan nan nan nan nan nan nan nan nan nan nan nan
nan nan nan nan nan nan nan nan nan nan nan nan nan nan nan nan nan nan nan nan nan nan nan nan nan nan nan nan nan nan nan nan nan nan nan nan nan nan nan nan nan nan nan nan nan nan nan nan nan
nan nan nan nan nan nan nan nan nan nan nan 240 248 nan nan nan nan nan nan nan nan nan nan nan nan nan nan nan nan nan nan nan nan nan nan nan nan nan nan nan nan nan nan nan nan nan nan nan nan
nan nan nan nan nan nan nan nan nan nan 243 240 243 nan nan nan nan nan nan nan nan nan nan nan nan nan nan nan nan nan nan nan nan nan nan nan nan nan nan nan nan nan nan nan nan nan nan nan nan
nan nan nan nan nan nan nan nan nan nan 240 247 243 nan nan nan nan nan nan nan nan nan nan nan nan nan nan nan nan nan nan nan nan nan nan nan nan nan nan nan nan nan nan nan nan nan nan nan nan
nan nan nan nan nan nan nan nan nan nan 242 241 246 244 nan nan nan nan nan nan nan nan nan nan nan nan nan nan nan nan nan nan nan nan nan nan nan nan nan 289 nan nan nan nan nan nan nan nan nan
nan nan nan nan nan nan nan nan nan nan nan 237 242 244 244 nan nan nan nan nan nan nan nan nan nan nan nan nan nan nan nan nan nan nan nan nan nan nan nan nan nan nan nan nan nan nan nan nan nan
nan nan nan nan nan nan nan nan nan nan nan nan 244 251 250 250 nan nan nan nan nan nan nan nan nan nan nan nan nan nan nan nan nan nan nan nan nan nan nan nan nan nan nan nan nan nan nan nan nan
nan nan nan nan nan nan nan nan nan nan nan nan 235 243 254 256 248 246 244 254 259 262 nan nan nan nan nan nan nan nan nan nan nan nan nan nan nan nan nan nan nan nan nan nan nan nan nan nan nan
nan nan nan nan nan nan nan nan nan nan nan nan nan 233 246 246 248 248 249 248 250 254 254 253 nan nan nan nan nan nan nan nan nan nan nan nan nan nan nan nan nan nan nan nan nan nan nan nan nan
nan nan nan nan nan nan nan nan nan nan nan nan nan 237 239 250 257 252 249 248 249 251 253 258 258 261 262 271 275 nan nan nan nan nan nan nan nan nan nan nan nan nan nan nan nan nan nan nan nan
nan nan nan nan nan nan nan nan nan nan nan nan nan 245 245 247 248 253 252 251 251 254 257 259 261 264 265 268 273 276 nan nan nan nan nan nan nan nan nan nan nan nan nan nan nan nan nan nan nan
nan nan nan nan nan nan nan nan nan nan nan nan nan nan 240 245 247 249 250 252 253 255 259 262 nan 264 266 nan 274 277 279 nan nan nan nan nan nan nan nan nan nan nan nan nan nan nan nan nan nan
nan nan nan nan nan nan nan nan nan nan nan nan nan nan nan nan nan nan 257 258 258 258 259 261 265 nan nan 271 nan nan nan nan nan nan nan nan nan nan nan nan nan nan nan nan nan nan nan nan nan
nan nan nan nan nan nan nan nan nan nan nan nan nan nan nan nan nan nan nan nan nan nan 270 270 268 270 276 272 nan nan nan nan nan nan nan nan nan nan nan nan nan nan nan nan nan nan nan nan nan
nan nan nan nan nan nan nan nan nan nan nan nan nan nan nan nan nan nan nan nan nan nan nan nan 266 270 nan nan nan nan nan nan nan nan nan nan nan nan nan nan nan nan nan nan nan nan nan nan nan
nan nan nan nan nan nan nan nan nan nan nan nan nan nan nan nan nan nan nan nan nan nan nan nan nan nan nan nan nan nan nan nan nan nan nan nan nan nan nan nan nan nan nan nan nan nan nan nan nan
nan nan nan nan nan nan nan nan nan nan nan nan nan nan nan nan nan nan nan nan nan nan nan nan nan nan nan nan nan nan nan nan nan nan nan nan nan nan nan nan nan nan nan nan nan nan nan nan nan
nan nan nan nan nan nan nan nan nan nan nan nan nan nan nan nan nan nan nan nan nan nan nan nan nan nan nan nan nan nan nan nan nan nan nan nan nan nan nan nan nan nan nan nan nan nan nan nan nan
nan nan nan nan nan nan nan nan nan nan nan nan nan nan nan nan nan nan nan nan nan nan nan nan nan nan nan nan nan nan nan nan nan nan nan nan nan nan nan nan nan nan nan nan nan nan nan nan nan